CDT,Max TemperatureF,Mean TemperatureF,Min TemperatureF,Max Dew PointF,MeanDew PointF,Min DewpointF,Max Humidity, Mean Humidity, Min Humidity, Max Sea Level PressureIn, Mean Sea Level PressureIn, Min Sea Level PressureIn, Max VisibilityMiles, Mean VisibilityMiles, Min VisibilityMiles, Max Wind SpeedMPH, Mean Wind SpeedMPH, Max Gust SpeedMPH,PrecipitationIn, CloudCover, Events, WindDirDegrees
2012-10-1,67,53,39,50,44,39,100,71,42,29.94,29.89,29.83,10,10,5,12,4,14,0.00,0,,52
2012-10-2,73,59,44,53,46,39,93,63,33,29.92,29.87,29.83,10,10,9,18,8,23,0.00,1,,29
2012-10-3,64,61,58,61,57,53,93,86,78,30.04,29.95,29.89,10,7,1,8,3,9,0.17,8,Rain,356
2012-10-4,76,59,41,57,51,40,100,77,53,30.14,30.06,30.00,10,8,2,24,9,30,0.12,4,Rain,231
2012-10-5,49,40,30,38,31,25,85,64,42,30.19,30.14,30.09,10,10,10,21,9,25,T,4,Rain,274
2012-10-6,48,37,26,30,27,24,92,69,45,30.21,30.16,30.09,10,10,10,18,9,24,0.00,4,,293
2012-10-7,50,38,25,30,25,20,82,57,31,30.22,30.18,30.15,10,10,10,15,6,20,0.00,5,,282
2012-10-8,60,43,25,33,27,21,88,60,31,30.18,30.10,30.01,10,10,10,23,10,30,0.00,0,,189
2012-10-9,66,54,41,41,38,34,93,64,34,30.00,29.92,29.81,10,9,5,26,14,37,0.26,5,Rain,213
2012-10-10,51,40,28,39,31,27,100,71,41,30.20,30.10,29.94,10,10,10,26,10,33,0.00,1,,275
2012-10-11,66,47,28,38,33,26,92,62,31,30.19,30.13,30.06,10,10,10,25,11,32,0.01,1,,219
2012-10-12,55,45,34,41,32,26,89,64,38,30.46,30.37,30.28,10,10,10,15,9,23,0.00,2,Rain,69
2012-10-13,66,55,43,62,53,33,100,77,53,30.25,29.96,29.80,10,6,2,20,11,25,0.32,7,Rain,182
2012-10-14,70,59,47,63,58,44,100,92,83,29.81,29.59,29.43,10,7,1,38,16,51,0.83,8,Rain-Thunderstorm,208
2012-10-15,59,49,38,44,40,37,96,72,47,29.97,29.91,29.82,10,10,9,17,8,22,0.00,2,,305
2012-10-16,70,54,37,53,46,36,100,74,47,29.97,29.74,29.55,10,9,6,29,13,38,0.00,1,,149
2012-10-17,66,59,52,59,54,48,100,78,56,29.56,29.40,29.26,10,7,1,30,14,39,1.01,7,Rain,191
2012-10-18,52,48,43,49,41,35,92,74,56,29.51,29.44,29.35,10,10,7,26,14,33,0.17,7,Rain,211
2012-10-19,51,44,36,45,43,37,100,87,74,29.68,29.50,29.43,10,10,5,15,7,18,0.05,7,Rain,234
2012-10-20,57,46,34,45,38,34,100,78,55,29.96,29.82,29.69,10,9,5,15,6,20,0.00,1,,255
2012-10-21,69,51,32,50,42,32,100,75,49,30.04,29.98,29.96,10,8,0,17,7,22,0.00,0,Fog,126
2012-10-22,64,57,49,63,58,47,100,93,86,29.98,29.92,29.89,10,6,1,15,6,22,0.42,7,Rain-Thunderstorm,139
2012-10-23,69,65,60,66,62,60,100,91,81,29.94,29.90,29.86,10,5,1,15,7,20,0.19,7,Rain-Thunderstorm,145
2012-10-24,78,68,57,65,62,57,100,81,62,29.93,29.89,29.84,10,9,6,22,10,28,0.00,3,,170
2012-10-25,74,58,41,62,55,39,92,80,68,30.03,29.80,29.67,10,10,10,30,19,38,0.16,5,Rain,225
2012-10-26,48,40,32,35,31,28,89,71,53,30.34,30.29,30.14,10,10,10,23,9,29,0.00,2,,330
2012-10-27,46,37,28,29,27,25,92,69,45,30.36,30.31,30.27,10,10,10,20,9,22,0.00,0,,353
2012-10-28,50,41,31,33,29,26,85,66,46,30.31,30.30,30.27,10,10,10,20,11,24,0.00,2,,11
2012-10-29,52,41,30,32,28,22,92,61,30,30.32,30.24,30.09,10,10,10,21,12,28,0.00,0,,349
2012-10-30,47,41,35,29,26,23,75,59,42,30.07,29.90,29.82,10,10,10,30,20,37,0.00,1,,338
2012-10-31,49,37,24,31,26,20,78,64,50,29.90,29.86,29.83,10,10,10,22,13,29,0.00,1,,314